• In Hungary
  • List of Countries
  • For 7 days
  • Water Temperature
  • Satellite Maps
  • Weather Map
  • News
  • Weather Widgets
  • user-avatar
    Login

    Hourly Weather Zwodne

    Today, 23 September, Sunday

    Time Temperature Precipitation Wind Pressure Humidity
    00:00 +9°C° 0 mm 3 mps 744 mmHg 85%
    01:00 +9°C° 0 mm 3 mps 744 mmHg 84%
    02:00 +9°C° 0 mm 3 mps 744 mmHg 83%
    03:00 +9°C° 0 mm 3 mps 744 mmHg 83%
    04:00 +9°C° 0 mm 3 mps 744 mmHg 84%
    05:00 +9°C° 0 mm 3 mps 744 mmHg 84%
    06:00 +9°C° 0 mm 3 mps 744 mmHg 81%
    07:00 +10°C° 0 mm 4 mps 744 mmHg 78%
    08:00 +11°C° 0 mm 4 mps 744 mmHg 76%
    09:00 +12°C° 0 mm 4 mps 744 mmHg 69%
    10:00 +14°C° 0 mm 5 mps 743 mmHg 63%
    11:00 +16°C° 0 mm 5 mps 743 mmHg 56%
    12:00 +16°C° 0 mm 5 mps 743 mmHg 53%
    13:00 +17°C° 0 mm 5 mps 743 mmHg 51%
    14:00 +17°C° 0 mm 6 mps 743 mmHg 48%
    15:00 +17°C° 0 mm 5 mps 742 mmHg 52%
    16:00 +17°C° 0 mm 4 mps 741 mmHg 56%
    17:00 +17°C° 0 mm 3 mps 741 mmHg 60%
    18:00 +16°C° 0.3 mm 3 mps 740 mmHg 66%
    19:00 +14°C° 0.3 mm 3 mps 740 mmHg 72%
    20:00 +13°C° 0.3 mm 3 mps 739 mmHg 78%
    21:00 +13°C° 0.3 mm 4 mps 738 mmHg 76%
    22:00 +13°C° 0.3 mm 5 mps 736 mmHg 74%
    23:00 +13°C° 0.3 mm 6 mps 735 mmHg 72%

    Tomorrow, 24 September, Monday

    Time Temperature Precipitation Wind Pressure Humidity
    00:00 +14°C° 0.8 mm 7 mps 734 mmHg 75%
    01:00 +13°C° 0.8 mm 8 mps 733 mmHg 78%
    02:00 +15°C° 0.8 mm 9 mps 731 mmHg 80%
    03:00 +15°C° 2.6 mm 9 mps 731 mmHg 83%
    04:00 +15°C° 2.6 mm 9 mps 730 mmHg 85%
    05:00 +14°C° 2.6 mm 10 mps 730 mmHg 88%
    06:00 +13°C° 0.4 mm 10 mps 731 mmHg 87%
    07:00 +11°C° 0.4 mm 10 mps 733 mmHg 86%
    08:00 +9°C° 0.4 mm 11 mps 734 mmHg 85%
    09:00 +9°C° 0.1 mm 10 mps 736 mmHg 80%
    10:00 +10°C° 0.1 mm 9 mps 737 mmHg 75%
    11:00 +11°C° 0.1 mm 9 mps 739 mmHg 70%
    12:00 +11°C° 0.2 mm 9 mps 739 mmHg 68%
    13:00 +11°C° 0.2 mm 9 mps 740 mmHg 66%
    14:00 +12°C° 0.2 mm 9 mps 740 mmHg 64%
    15:00 +11°C° 0.1 mm 9 mps 740 mmHg 63%
    16:00 +11°C° 0.1 mm 8 mps 741 mmHg 62%
    17:00 +10°C° 0.1 mm 8 mps 741 mmHg 61%
    18:00 +9°C° 0 mm 7 mps 742 mmHg 63%
    19:00 +8°C° 0 mm 7 mps 742 mmHg 65%
    20:00 +7°C° 0 mm 6 mps 743 mmHg 66%
    21:00 +7°C° 0.1 mm 6 mps 743 mmHg 69%
    22:00 +7°C° 0.1 mm 6 mps 743 mmHg 73%
    23:00 +6°C° 0.1 mm 7 mps 744 mmHg 76%

    Day after tomorrow, 25 September, Tuesday

    Time Temperature Precipitation Wind Pressure Humidity
    00:00 +5°C° 0.3 mm 7 mps 744 mmHg 77%
    01:00 +5°C° 0.3 mm 7 mps 745 mmHg 79%
    02:00 +5°C° 0.3 mm 8 mps 745 mmHg 80%
    03:00 +5°C° 0 mm 7 mps 746 mmHg 81%
    04:00 +4°C° 0 mm 7 mps 747 mmHg 81%
    05:00 +3°C° 0 mm 6 mps 748 mmHg 81%
    06:00 +4°C° 0 mm 6 mps 748 mmHg 79%
    07:00 +4°C° 0 mm 6 mps 749 mmHg 77%
    08:00 +4°C° 0 mm 7 mps 750 mmHg 75%
    09:00 +5°C° 0 mm 7 mps 750 mmHg 68%
    10:00 +8°C° 0 mm 7 mps 751 mmHg 62%
    11:00 +9°C° 0 mm 8 mps 751 mmHg 55%
    12:00 +9°C° 0.2 mm 8 mps 752 mmHg 54%
    13:00 +9°C° 0.2 mm 8 mps 752 mmHg 54%
    14:00 +9°C° 0.2 mm 8 mps 752 mmHg 53%
    15:00 +9°C° 0.1 mm 7 mps 752 mmHg 54%
    16:00 +9°C° 0.1 mm 7 mps 753 mmHg 56%
    17:00 +9°C° 0.1 mm 6 mps 753 mmHg 57%
    18:00 +8°C° 0 mm 5 mps 753 mmHg 61%
    19:00 +7°C° 0 mm 5 mps 754 mmHg 64%
    20:00 +6°C° 0 mm 4 mps 754 mmHg 68%
    21:00 +5°C° 0 mm 4 mps 755 mmHg 70%
    22:00 +5°C° 0 mm 4 mps 755 mmHg 72%
    23:00 +4°C° 0 mm 3 mps 756 mmHg 74%

    26 September, Wednesday

    Time Temperature Precipitation Wind Pressure Humidity
    00:00 +4°C° 0 mm 3 mps 756 mmHg 75%
    01:00 +4°C° 0 mm 3 mps 757 mmHg 77%
    02:00 +3°C° 0 mm 3 mps 757 mmHg 78%
    03:00 +3°C° 0 mm 3 mps 757 mmHg 79%
    04:00 +4°C° 0 mm 2 mps 757 mmHg 80%
    05:00 +3°C° 0 mm 2 mps 757 mmHg 80%
    06:00 +4°C° 0 mm 2 mps 757 mmHg 77%
    07:00 +4°C° 0 mm 3 mps 757 mmHg 73%
    08:00 +4°C° 0 mm 3 mps 757 mmHg 69%
    09:00 +7°C° 0 mm 3 mps 757 mmHg 62%
    10:00 +8°C° 0 mm 4 mps 757 mmHg 55%
    11:00 +11°C° 0 mm 4 mps 757 mmHg 48%
    12:00 +12°C° 0 mm 4 mps 757 mmHg 46%
    13:00 +12°C° 0 mm 4 mps 756 mmHg 45%
    14:00 +13°C° 0 mm 5 mps 755 mmHg 43%
    15:00 +13°C° 0 mm 4 mps 755 mmHg 46%
    16:00 +12°C° 0 mm 4 mps 754 mmHg 48%
    17:00 +12°C° 0 mm 3 mps 753 mmHg 51%
    18:00 +11°C° 0 mm 3 mps 753 mmHg 53%
    19:00 +10°C° 0 mm 3 mps 753 mmHg 55%
    20:00 +9°C° 0 mm 3 mps 753 mmHg 57%
    21:00 +8°C° 0 mm 4 mps 753 mmHg 57%
    22:00 +8°C° 0 mm 4 mps 753 mmHg 57%
    23:00 +10°C° 0 mm 4 mps 752 mmHg 58%

    27 September, Thursday

    Time Temperature Precipitation Wind Pressure Humidity
    00:00 +9°C° 0 mm 5 mps 752 mmHg 57%
    01:00 +9°C° 0 mm 5 mps 751 mmHg 56%
    02:00 +9°C° 0 mm 5 mps 751 mmHg 55%
    03:00 +9°C° 0 mm 6 mps 751 mmHg 55%
    04:00 +9°C° 0 mm 6 mps 750 mmHg 55%
    05:00 +8°C° 0 mm 6 mps 750 mmHg 54%
    06:00 +8°C° 0 mm 6 mps 749 mmHg 54%
    07:00 +8°C° 0 mm 6 mps 749 mmHg 54%
    08:00 +9°C° 0 mm 7 mps 749 mmHg 53%
    09:00 +10°C° 0 mm 7 mps 749 mmHg 51%
    10:00 +12°C° 0 mm 7 mps 749 mmHg 49%
    11:00 +14°C° 0 mm 7 mps 748 mmHg 46%
    12:00 +15°C° 0 mm 7 mps 748 mmHg 45%
    13:00 +16°C° 0 mm 7 mps 748 mmHg 44%
    14:00 +18°C° 0 mm 7 mps 747 mmHg 43%
    15:00 +17°C° 0 mm 7 mps 747 mmHg 46%
    16:00 +17°C° 0 mm 6 mps 746 mmHg 49%
    17:00 +17°C° 0 mm 5 mps 746 mmHg 52%
    18:00 +16°C° 0 mm 5 mps 746 mmHg 55%
    19:00 +14°C° 0 mm 5 mps 746 mmHg 57%
    20:00 +13°C° 0 mm 4 mps 746 mmHg 60%
    21:00 +13°C° 0 mm 4 mps 746 mmHg 61%
    22:00 +13°C° 0 mm 4 mps 746 mmHg 61%
    23:00 +12°C° 0 mm 4 mps 746 mmHg 62%

    28 September, Friday

    Time Temperature Precipitation Wind Pressure Humidity
    00:00 +12°C° 0 mm 4 mps 745 mmHg 63%
    01:00 +12°C° 0 mm 4 mps 745 mmHg 64%
    02:00 +11°C° 0 mm 4 mps 745 mmHg 65%
    03:00 +11°C° 0 mm 4 mps 744 mmHg 66%
    04:00 +10°C° 0 mm 5 mps 744 mmHg 67%
    05:00 +9°C° 0 mm 5 mps 743 mmHg 67%
    06:00 +10°C° 0 mm 5 mps 743 mmHg 68%
    07:00 +11°C° 0 mm 6 mps 743 mmHg 68%
    08:00 +11°C° 0 mm 6 mps 743 mmHg 68%
    09:00 +11°C° 0.1 mm 6 mps 744 mmHg 71%
    10:00 +13°C° 0.1 mm 5 mps 744 mmHg 74%
    11:00 +13°C° 0.1 mm 5 mps 745 mmHg 77%
    12:00 +13°C° 0 mm 4 mps 745 mmHg 75%
    13:00 +13°C° 0 mm 4 mps 745 mmHg 74%
    14:00 +13°C° 0 mm 4 mps 745 mmHg 72%
    15:00 +13°C° 0 mm 3 mps 745 mmHg 69%
    16:00 +13°C° 0 mm 3 mps 745 mmHg 66%
    17:00 +14°C° 0 mm 2 mps 745 mmHg 63%
    18:00 +13°C° 0 mm 2 mps 746 mmHg 66%
    19:00 +11°C° 0 mm 1 mps 746 mmHg 70%
    20:00 +10°C° 0 mm 1 mps 746 mmHg 73%
    21:00 +9°C° 0 mm 1 mps 746 mmHg 74%
    22:00 +9°C° 0 mm 1 mps 746 mmHg 74%
    23:00 +9°C° 0 mm 1 mps 746 mmHg 75%
    Show more